Location: Jackson
(42.2460°N, 84.4010°W)
Time: 19:10:42
(UTC-04:00)

Courier 1B Rocket - Pass Details

Date: 17 February 2026
Orbit: 920 x 1201 km, 28.2° (Epoch: 12 March)

Event Time Altitude Azimuth Distance (km) Brightness Sun altitude
Rises 23:53:01 0° 253° (WSW) 3,667 - -57.2°
Reaches altitude 10° 23:56:23 10° 236° (WSW) 2,764 - -57.4°
Maximum altitude 00:00:59 20° 193° (SSW) 2,208 - -57.8°
Drops below altitude 10° 00:05:48 10° 149° (SSE) 2,905 - -58.1°
Sets 00:09:28 0° 134° (SE) 3,916 - -58.4°
